FENGYUN 1C DEB, 30325

Orbit data source: Space-Track

FENGYUN 1C DEB, 30325 is space debris in SSO originally from a launch on Mon, 10 May 1999 UTC launched from the Taiyaun Space Center, China (TSC). Fengyun 1C debris stems from the Chinese weather satellite Fengyun-1C, which was intentionally destroyed by a Chinese anti-satellite missile in 2007. This event dramatically increased the amount of space debris, with thousands of trackable fragments posing hazards to satellites and human spaceflight. The Fengyun 1C debris cloud has become a focal point in discussions about space sustainability and the need for international regulations to prevent the creation of new debris.

Loading next visibility...
FENGYUN 1C DEB details
Identifier
30325, 1999-025AAL
Orbit
SSO
Last TLE update14 hours ago
Origin
Flag of CNCASC (CN / PRC)
ManufacturerUnknown
MissionSpacecraft
Bus & MotorUnknown
MassUnknown
Launch date (UTC)
1999-05-10 (26 years ago)
Launch vehicleUnknown
Launch site
Taiyaun Space Center, China (TSC)
Object type
Payload
Rocket body
Debris
Shape & HBRUnknown
Radar Cross SectionSmall (<0.1 m²)

Expand to show TLE details & history

TLE from 14 hours ago
0 FENGYUN 1C DEB
1 30325U 99025AAL 24356.00874931  .00000342  00000-0  22228-3 0  9998
2 30325  98.7631  19.7611 0016254 179.0204 181.1001 14.08928023919913
Epoch: 2024-12-21T00:12Z
Definitive object data (Epoch: 2024-12-21T00:12:35.94Z)
Latitude0.00001°
Longitude-73.45472°
Altitude877.71 km
Speed7.407 km/s
True Right ascension01h 19m 02s
True Declination0° 00' 00"
Sunlit
Object was in daylight at TLE epoch
Visualization TLE readout
Latitude63.21246°
Longitude-90.57135°
Altitude878.432 km
Speed7.417 km/s
Apparent Right ascension00h 46m 52s
Apparent Declination16° 23' 03"
Sunlit
Object is in daylight
Visualization observer readout
Local Sidereal Time13:11:06
Azimuth6.968° NNE
Elevation-33.417°
Doppler factor1
Orbital elements
Apogee altitude871.984 km
Perigee altitude848.453 km
Semi-major axis7,238.355 km
Eccentricity0.0016254
Inclination98.7631°
RAAN19.7611°
Arg. of periapsis179.0204°
True anomaly181.09653°
Mean anomaly181.1001°
Eccentric anomaly181.09831°
Mean motion3.52438 °/min
BSTAR0.00022228
Orbital period102.15 mins
Loading maneuver chart data...
Loading historical data...
Loading historical data...
Loading historical data...
Loading historical data...
Loading historical data...
Loading historical data...
Loading historical data...

FENGYUN 1C DEB Visibility forecast

Observer location: undefined°, undefined

Span
Click to sort rows by Start time (UTC) header in descending order
Start Az.
Max El. time (UTC)
Max El. Az.
Max El.
End time (UTC)
End Az.
9 mins2024-12-21 14:26:01.829Z22.583° NE2024-12-21 14:31:01.829Z128.062° SE40.867°2024-12-21 14:35:01.829Z180.36° SSW
5 mins2024-12-21 16:09:01.829Z323.325° NNW2024-12-21 16:11:01.829Z297.326° NW17.276°2024-12-21 16:14:01.829Z261.519° W
4 mins2024-12-22 00:16:01.829Z79.609° E2024-12-22 00:18:01.829Z55.535° ENE14.713°2024-12-22 00:20:01.829Z32.819° NE
9 mins2024-12-22 01:54:01.829Z172.598° S2024-12-22 01:58:01.829Z270.029° WNW44.236°2024-12-22 02:03:01.829Z342.968° N
|